TimeCST,TemperatureF,Dew PointF,Humidity,Sea Level PressureIn,VisibilityMPH,Wind Direction,Wind SpeedMPH,Gust SpeedMPH,PrecipitationIn,Events,Conditions,WindDirDegrees,DateUTC
12:15 AM,35.6,33.8,93,30.33,10.0,Calm,Calm,-,N/A,,Clear,0,2012-11-19 06:15:00
12:35 AM,35.6,32.0,87,30.34,10.0,Calm,Calm,-,N/A,,Clear,0,2012-11-19 06:35:00
12:55 AM,35.6,32.0,87,30.34,10.0,Calm,Calm,-,N/A,,Clear,0,2012-11-19 06:55:00
1:15 AM,35.6,32.0,87,30.33,10.0,Calm,Calm,-,N/A,,Clear,0,2012-11-19 07:15:00
1:35 AM,35.6,32.0,87,30.33,10.0,Calm,Calm,-,N/A,,Clear,0,2012-11-19 07:35:00
1:55 AM,33.8,32.0,93,30.33,10.0,Calm,Calm,-,N/A,,Clear,0,2012-11-19 07:55:00
2:15 AM,35.6,33.8,93,30.33,10.0,Calm,Calm,-,N/A,,Clear,0,2012-11-19 08:15:00
2:35 AM,35.6,32.0,87,30.33,10.0,Calm,Calm,-,N/A,,Clear,0,2012-11-19 08:35:00
2:55 AM,35.6,32.0,87,30.33,10.0,Calm,Calm,-,N/A,,Clear,0,2012-11-19 08:55:00
3:15 AM,33.8,32.0,93,30.32,10.0,Calm,Calm,-,N/A,,Clear,0,2012-11-19 09:15:00
3:35 AM,35.6,32.0,87,30.32,10.0,Calm,Calm,-,N/A,,Clear,0,2012-11-19 09:35:00
3:55 AM,33.8,32.0,93,30.32,10.0,Calm,Calm,-,N/A,,Clear,0,2012-11-19 09:55:00
4:15 AM,33.8,32.0,93,30.32,10.0,Calm,Calm,-,N/A,,Clear,0,2012-11-19 10:15:00
4:35 AM,33.8,32.0,93,30.32,10.0,Calm,Calm,-,N/A,,Clear,0,2012-11-19 10:35:00
4:55 AM,35.6,32.0,87,30.32,10.0,Calm,Calm,-,N/A,,Clear,0,2012-11-19 10:55:00
5:15 AM,33.8,32.0,93,30.32,10.0,Calm,Calm,-,N/A,,Clear,0,2012-11-19 11:15:00
5:35 AM,33.8,32.0,93,30.32,10.0,Calm,Calm,-,N/A,,Clear,0,2012-11-19 11:35:00
5:55 AM,33.8,32.0,93,30.32,10.0,Calm,Calm,-,N/A,,Clear,0,2012-11-19 11:55:00
6:15 AM,33.8,32.0,93,30.32,10.0,Calm,Calm,-,N/A,,Clear,0,2012-11-19 12:15:00
6:35 AM,33.8,32.0,93,30.32,10.0,Calm,Calm,-,N/A,,Clear,0,2012-11-19 12:35:00
6:55 AM,33.8,32.0,93,30.32,10.0,Calm,Calm,-,N/A,,Clear,0,2012-11-19 12:55:00
7:35 AM,35.6,33.8,93,30.33,7.0,Calm,Calm,-,N/A,,Clear,0,2012-11-19 13:35:00
7:55 AM,37.4,35.6,93,30.33,7.0,Calm,Calm,-,N/A,,Clear,0,2012-11-19 13:55:00
8:15 AM,42.8,35.6,76,30.33,10.0,Calm,Calm,-,N/A,,Clear,0,2012-11-19 14:15:00
8:35 AM,42.8,37.4,81,30.33,10.0,Calm,Calm,-,N/A,,Clear,0,2012-11-19 14:35:00
8:55 AM,46.4,37.4,71,30.33,10.0,Calm,Calm,-,N/A,,Clear,0,2012-11-19 14:55:00
9:15 AM,48.2,39.2,71,30.32,10.0,Calm,Calm,-,N/A,,Clear,0,2012-11-19 15:15:00
9:35 AM,50.0,39.2,66,30.33,10.0,Calm,Calm,-,N/A,,Clear,0,2012-11-19 15:35:00
9:55 AM,53.6,41.0,62,30.32,10.0,Calm,Calm,-,N/A,,Clear,0,2012-11-19 15:55:00
10:15 AM,53.6,41.0,62,30.32,10.0,Calm,Calm,-,N/A,,Clear,0,2012-11-19 16:15:00
10:35 AM,59.0,39.2,48,30.31,10.0,SSW,3.5,-,N/A,,Clear,200,2012-11-19 16:35:00
10:55 AM,60.8,35.6,39,30.30,10.0,SSW,5.8,-,N/A,,Clear,210,2012-11-19 16:55:00
11:15 AM,60.8,35.6,39,30.29,10.0,SSW,6.9,-,N/A,,Clear,210,2012-11-19 17:15:00
11:35 AM,60.8,35.6,39,30.28,10.0,SSW,5.8,-,N/A,,Clear,200,2012-11-19 17:35:00
11:55 AM,60.8,35.6,39,30.27,10.0,SSW,6.9,-,N/A,,Clear,210,2012-11-19 17:55:00
12:15 PM,60.8,35.6,39,30.26,10.0,SSW,5.8,-,N/A,,Clear,200,2012-11-19 18:15:00
12:35 PM,60.8,35.6,39,30.25,10.0,South,4.6,-,N/A,,Clear,190,2012-11-19 18:35:00
12:55 PM,60.8,37.4,42,30.24,10.0,SSE,4.6,-,N/A,,Scattered Clouds,160,2012-11-19 18:55:00
1:15 PM,62.6,33.8,34,30.25,10.0,SSW,6.9,-,N/A,,Scattered Clouds,200,2012-11-19 19:15:00
1:35 PM,62.6,33.8,34,30.23,10.0,South,4.6,-,N/A,,Clear,180,2012-11-19 19:35:00
1:55 PM,62.6,33.8,34,30.23,10.0,SW,3.5,-,N/A,,Clear,220,2012-11-19 19:55:00
2:15 PM,62.6,35.6,37,30.23,10.0,SW,4.6,-,N/A,,Clear,220,2012-11-19 20:15:00
2:35 PM,62.6,35.6,37,30.22,10.0,SW,3.5,-,N/A,,Clear,230,2012-11-19 20:35:00
2:55 PM,60.8,35.6,39,30.22,10.0,South,3.5,-,N/A,,Clear,180,2012-11-19 20:55:00
3:15 PM,60.8,37.4,42,30.21,10.0,South,3.5,-,N/A,,Clear,170,2012-11-19 21:15:00
3:55 PM,60.8,37.4,42,30.21,10.0,South,3.5,-,N/A,,Clear,170,2012-11-19 21:55:00
4:15 PM,59.0,41.0,51,30.20,10.0,SSE,4.6,-,N/A,,Scattered Clouds,160,2012-11-19 22:15:00
4:35 PM,57.2,41.0,55,30.20,10.0,SSE,3.5,-,N/A,,Mostly Cloudy,160,2012-11-19 22:35:00
4:55 PM,55.4,41.0,58,30.20,10.0,Calm,Calm,-,N/A,,Scattered Clouds,0,2012-11-19 22:55:00
5:15 PM,55.4,39.2,54,30.20,7.0,Calm,Calm,-,N/A,,Scattered Clouds,0,2012-11-19 23:15:00
5:35 PM,53.6,41.0,62,30.21,10.0,Calm,Calm,-,N/A,,Overcast,0,2012-11-19 23:35:00
5:55 PM,53.6,41.0,62,30.22,10.0,Calm,Calm,-,N/A,,Mostly Cloudy,0,2012-11-19 23:55:00
6:15 PM,51.8,42.8,71,30.21,10.0,Calm,Calm,-,N/A,,Overcast,0,2012-11-20 00:15:00
6:35 PM,51.8,41.0,67,30.19,10.0,ESE,4.6,-,N/A,,Overcast,110,2012-11-20 00:35:00
6:55 PM,51.8,41.0,67,30.19,10.0,Calm,Calm,-,N/A,,Mostly Cloudy,0,2012-11-20 00:55:00
7:15 PM,50.0,41.0,71,30.19,10.0,ESE,4.6,-,N/A,,Overcast,120,2012-11-20 01:15:00
7:35 PM,48.2,41.0,76,30.19,10.0,SE,4.6,-,N/A,,Mostly Cloudy,130,2012-11-20 01:35:00
7:55 PM,48.2,42.8,82,30.18,10.0,ESE,4.6,-,N/A,,Overcast,120,2012-11-20 01:55:00
8:15 PM,50.0,41.0,71,30.18,10.0,ESE,3.5,-,N/A,,Overcast,120,2012-11-20 02:15:00
8:35 PM,50.0,41.0,71,30.18,10.0,ESE,4.6,-,N/A,,Overcast,120,2012-11-20 02:35:00
8:55 PM,50.0,42.8,76,30.18,10.0,ESE,3.5,-,N/A,,Overcast,120,2012-11-20 02:55:00
9:15 PM,50.0,41.0,71,30.18,10.0,SE,3.5,-,N/A,,Overcast,140,2012-11-20 03:15:00
9:35 PM,50.0,41.0,71,30.18,10.0,Calm,Calm,-,N/A,,Overcast,0,2012-11-20 03:35:00
9:55 PM,51.8,41.0,67,30.17,10.0,Calm,Calm,-,N/A,,Overcast,0,2012-11-20 03:55:00
10:15 PM,50.0,41.0,71,30.17,10.0,SSE,3.5,-,N/A,,Overcast,150,2012-11-20 04:15:00
10:35 PM,48.2,41.0,76,30.17,10.0,Calm,Calm,-,N/A,,Scattered Clouds,0,2012-11-20 04:35:00
10:55 PM,48.2,39.2,71,30.17,10.0,Calm,Calm,-,N/A,,Scattered Clouds,0,2012-11-20 04:55:00
11:15 PM,46.4,39.2,76,30.16,10.0,Calm,Calm,-,N/A,,Scattered Clouds,0,2012-11-20 05:15:00
11:35 PM,48.2,39.2,71,30.16,10.0,Calm,Calm,-,N/A,,Clear,0,2012-11-20 05:35:00
11:55 PM,44.6,37.4,76,30.16,10.0,SSE,3.5,-,N/A,,Clear,150,2012-11-20 05:55:00